Location: Launois
(49.6535°N, 4.5395°E)
Time: 08:37:37
(UTC+00:00)

CZ-2D R/B - Pass Details

Date: 18 August 2024
Orbit: 791 x 842 km, 98.8° (Epoch: 16 September)

Event Time Altitude Azimuth Distance (km) Brightness Sun altitude
Rises 00:20:19 0° 29° (NNE) 3,349 6.4 -26.9°
Reaches altitude 10° 00:23:44 10° 52° (NE) 2,422 5.2 -26.8°
Maximum altitude 00:26:47 15° 87° (E) 2,078 4.4 -26.7°
Enters shadow 00:28:32 13° 109° (ESE) 2,199 4.3 -26.6°
